Weather History for Alice, TX

Change the Weather History Date:

Tuesday, November 13, 2012

  Actual Average Record
Temperature  
Mean Temperature 54 °F -  
Max Temperature 55 °F 74 °F 89 °F (2011)
Min Temperature 52 °F 55 °F 43 °F (2013)
Degree Days  
Heating Degree Days 12    
Growing Degree Days 4 (Base 50)    
Moisture  
Dew Point 38 °F    
Average Humidity 57    
Maximum Humidity 86    
Minimum Humidity 37    
Precipitation  
Precipitation 0.11 in - - ()
Sea Level Pressure  
Sea Level Pressure 30.36 in    
Wind  
Wind Speed 11 mph (NNE)    
Max Wind Speed 14 mph    
Max Gust Speed 18 mph    
Visibility 10 miles    
Events      
Averages and records for this station are not official NWS values.
T = Trace of Precipitation, MM = Missing Value Source: NWS Daily Summary

Daily Weather History Graph

Daily Weather History Graph

Search for Another Location

Airport:

Trip Planner

Search our weather history database for the weather conditions in past years. The results will help you decide how hot, cold, wet, or windy it might be!

Date:

Astronomy

Nov. 13, 2012 Rise Set
Actual Time 6:52 AM CST 5:40 PM CST
Civil Twilight 6:27 AM CST 6:05 PM CST
Nautical Twilight 5:59 AM CST 6:33 PM CST
Astronomical Twilight 5:31 AM CST 7:01 PM CST
Moon 6:30 AM CST (11/13) 5:37 PM CST (11/13)
Length of Visible Light 11h 37m
Length of Day
10h 48m
Waning Crescent, 0% of the Moon is Illuminated
Nov 13
Waning Crescent
Nov 13
New
Nov 20
First Quarter
Nov 28
Full
Dec 6
Last Quarter

Hourly Weather History & Observations

Time (CST) Temp. Dew Point Humidity Pressure Visibility Wind Dir Wind Speed Gust Speed Precip Events Conditions
12:53 AM 55.9 °F 30.0 °F 37% 30.40 in 10.0 mi NNE 12.7 mph - N/A   Mostly Cloudy
1:53 AM 55.0 °F 30.0 °F 38% 30.41 in 10.0 mi NNE 10.4 mph - N/A   Clear
2:53 AM 53.1 °F 30.9 °F 43% 30.38 in 10.0 mi NNE 9.2 mph - N/A   Clear
3:53 AM 53.1 °F 30.9 °F 43% 30.38 in 10.0 mi NNE 9.2 mph - N/A   Overcast
4:53 AM 53.1 °F 32.0 °F 45% 30.38 in 10.0 mi NNE 10.4 mph - N/A   Overcast
5:53 AM 53.6 °F 33.8 °F 47% 30.38 in 10.0 mi NE 12.7 mph - N/A   Overcast
6:53 AM 52.0 °F 33.1 °F 49% 30.40 in 10.0 mi NE 13.8 mph 18.4 mph N/A   Overcast
7:53 AM 53.1 °F 33.1 °F 47% 30.42 in 10.0 mi NE 13.8 mph - N/A   Overcast
8:53 AM 54.0 °F 33.1 °F 45% 30.43 in 10.0 mi NE 13.8 mph - N/A   Overcast
9:53 AM 55.4 °F 33.8 °F 44% 30.43 in 10.0 mi NNE 11.5 mph - N/A   Overcast
10:53 AM 55.9 °F 36.0 °F 47% 30.41 in 10.0 mi NE 11.5 mph - N/A   Overcast
11:53 AM 55.0 °F 37.9 °F 53% 30.40 in 10.0 mi NNE 10.4 mph - 0.00 in   Overcast
12:53 PM 55.0 °F 39.9 °F 57% 30.33 in 10.0 mi East 9.2 mph - 0.00 in   Overcast
1:53 PM 53.1 °F 46.0 °F 77% 30.35 in 10.0 mi North 10.4 mph - 0.07 in   Overcast
2:53 PM 55.9 °F 45.0 °F 67% 30.33 in 10.0 mi North 9.2 mph - N/A   Overcast
3:53 PM 55.9 °F 46.0 °F 69% 30.28 in 10.0 mi ENE 6.9 mph - N/A   Overcast
4:53 PM 55.9 °F 48.0 °F 75% 30.28 in 10.0 mi NE 5.8 mph - N/A   Overcast
5:53 PM 54.0 °F 50.0 °F 86% 30.31 in 9.0 mi NNW 11.5 mph - 0.04 in   Overcast
6:53 PM 53.1 °F 46.9 °F 80% 30.32 in 10.0 mi NNE 10.4 mph - N/A   Clear
7:53 PM 52.0 °F 43.0 °F 71% 30.33 in 10.0 mi NNE 9.2 mph - 0.00 in   Clear
8:53 PM 52.0 °F 41.0 °F 66% 30.33 in 10.0 mi NNE 9.2 mph - N/A   Mostly Cloudy
9:53 PM 52.0 °F 39.0 °F 61% 30.32 in 10.0 mi NE 9.2 mph - N/A   Overcast
10:53 PM 52.0 °F 39.9 °F 63% 30.33 in 10.0 mi NE 8.1 mph - N/A   Overcast
11:53 PM 52.0 °F 41.0 °F 66% 30.32 in 10.0 mi NNE 8.1 mph - N/A   Overcast